Hourly Data Report for March 01, 2021

TORONTO CITY
ONTARIO
Current Station Operator: ECCC - MSC

43°40'00.000" N
79°24'00.000" W
112.50 m
6158355
71508
XTO

Download Data

Hourly Data (March 2021)
Hourly Data Report for March 1, 2021
TIME
LST
Temp Definition
°C
Dew Point Definition
°C
Rel Hum Definition
%
Precip. Amount Definition
mm

Wind Dir Definition
10's deg

Wind Spd Definition
km/h
Visibility Definition
km
Stn Press Definition
kPa
Hmdx Definition


Wind Chill Definition


Weather Definition


00:00 5.6 4.3 92 0.4       98.79     LegendNANA
01:00 5.8 4.7 93 0.0       98.82     LegendNANA
02:00 6.2 2.0 75 0.0       98.87     LegendNANA
03:00 5.7 1.1 72 0.0       98.93     LegendNANA
04:00 5.0 -0.4 68 0.0       99.02     LegendNANA
05:00 3.3 -2.2 67 0.0       99.19     LegendNANA
06:00 2.2 -3.2 67 0.0       99.30     LegendNANA
07:00 1.1 -5.5 61 0.0       99.41     LegendNANA
08:00 0.9 -7.0 55 0.0       99.55     LegendNANA
09:00 0.5 -7.9 53 0.0       99.64     LegendNANA
10:00 0.8 -8.4 50 0.0       99.68     LegendNANA
11:00 0.4 -8.0 53 0.0       99.69     LegendNANA
12:00 -0.7 -6.1 67 0.0       99.71     LegendNANA
13:00 -0.5 -6.5 64 0.0       99.72     LegendNANA
14:00 -0.5 -8.9 53 0.0       99.78     LegendNANA
15:00 -1.4 -14.4 36 0.0       99.91     LegendNANA
16:00 -2.8 -13.6 43 0.0       100.03     LegendNANA
17:00 -4.0 -15.0 42 0.0       100.20     LegendNANA
18:00 -5.8 -15.4 47 0.0       100.38     LegendNANA
19:00 -6.6 -16.2 47 0.0       100.51     LegendNANA
20:00 -7.5 -16.9 47 0.0       100.65     LegendNANA
21:00 -7.8 -17.7 45 0.0       100.70     LegendNANA
22:00 -8.1 -16.4 51 0.0       100.76     LegendNANA
23:00 -8.4 -17.3 49 0.0       100.85     LegendNANA

Notes on Data Quality.

Legend

  • E = Estimated
  • M = Missing
  • NA = Not Available*
  • [empty] = Indicates an unobserved value
Date modified: